This is the latest recevied weather packets stored in our database for station/object SR9SMR. If no packets are shown the sender has not sent any weather packets the latest 10 day(s).
| Time | Temp. | Humidity | Pressure | Rain* | Wind** | Luminosity | Snow |
|---|---|---|---|---|---|---|---|
| 1778058050 | 13.89° C | 100% | 894.7 hPa | - | - | - | - |
| 1778058014 | 13.89° C | 100% | 894.7 hPa | - | - | - | - |
| 1778057894 | 13.89° C | 100% | 894.4 hPa | - | - | - | - |
| 1778057773 | 13.89° C | 100% | 894.6 hPa | - | - | - | - |
| 1778057650 | 13.33° C | 100% | 894.2 hPa | - | - | - | - |
| 1778057526 | 13.89° C | 100% | 894.4 hPa | - | - | - | - |
| 1778057466 | 13.89° C | 100% | 894.9 hPa | - | - | - | - |
| 1778057405 | 13.89° C | 100% | 894.7 hPa | - | - | - | - |
| 1778057284 | 13.33° C | 100% | 894.5 hPa | - | - | - | - |
| 1778057167 | 13.89° C | 100% | 894.5 hPa | - | - | - | - |
| 1778057163 | 13.89° C | 100% | 894.6 hPa | - | - | - | - |
| 1778057041 | 13.33° C | 100% | 894.8 hPa | - | - | - | - |
| 1778056920 | 13.89° C | 100% | 894.6 hPa | - | - | - | - |
| 1778056861 | 13.89° C | 100% | 894.6 hPa | - | - | - | - |
| 1778056800 | 13.33° C | 100% | 894.7 hPa | - | - | - | - |
| 1778056679 | 13.33° C | 100% | 894.2 hPa | - | - | - | - |
| 1778056558 | 13.33° C | 100% | 894.4 hPa | - | - | - | - |
| 1778056438 | 13.33° C | 100% | 894.1 hPa | - | - | - | - |
| 1778056316 | 12.78° C | 100% | 893.7 hPa | - | - | - | - |
| 1778056256 | 12.78° C | 100% | 893.7 hPa | - | - | - | - |
| 1778056195 | 13.33° C | 100% | 893.5 hPa | - | - | - | - |
| 1778056075 | 12.78° C | 100% | 893.7 hPa | - | - | - | - |
| 1778055954 | 12.78° C | 100% | 897.1 hPa | - | - | - | - |
| 1778055833 | 12.22° C | 100% | 893.8 hPa | - | - | - | - |
| 1778055713 | 12.22° C | 100% | 893.6 hPa | - | - | - | - |
* Rain since midnight (hover to see other rain measurements)
** Current wind speed in m/s (hover to see current wind gust speed)